CDT,Max TemperatureF,Mean TemperatureF,Min TemperatureF,Max Dew PointF,MeanDew PointF,Min DewpointF,Max Humidity, Mean Humidity, Min Humidity, Max Sea Level PressureIn, Mean Sea Level PressureIn, Min Sea Level PressureIn, Max VisibilityMiles, Mean VisibilityMiles, Min VisibilityMiles, Max Wind SpeedMPH, Mean Wind SpeedMPH, Max Gust SpeedMPH,PrecipitationIn, CloudCover, Events, WindDirDegrees
2013-10-1,66,54,41,48,37,28,100,62,26,29.87,29.71,29.53,10,10,10,32,15,40,0.00,0,,255
2013-10-2,62,50,37,45,38,32,93,69,34,30.00,29.95,29.86,10,10,9,15,6,16,0.00,3,Rain,256
2013-10-3,57,47,37,41,37,34,93,74,44,30.24,30.08,29.99,10,10,7,20,9,25,0.00,2,,13
2013-10-4,41,39,37,37,33,30,93,77,65,30.34,30.28,30.20,10,10,10,25,15,36,0.00,6,,29
2013-10-5,50,42,32,37,32,28,93,74,58,30.20,30.06,29.98,10,10,4,28,19,33,0.01,6,Rain,19
2013-10-6,66,47,28,37,32,27,100,63,30,30.00,29.91,29.84,10,10,10,21,9,26,0.00,0,,308
2013-10-7,62,47,32,45,37,30,100,68,37,29.95,29.85,29.67,10,10,10,15,7,22,0.00,1,,163
2013-10-8,71,54,37,46,40,34,100,71,27,29.80,29.64,29.56,10,10,2,16,7,18,0.00,0,,265
2013-10-9,68,54,39,41,36,32,87,63,26,30.01,29.95,29.80,10,10,8,12,6,,0.00,0,,298
2013-10-10,69,53,37,50,42,34,93,72,40,30.00,29.83,29.68,10,10,8,16,9,23,0.00,0,,61
2013-10-11,60,54,48,57,52,48,100,92,82,29.68,29.48,29.28,10,9,1,16,8,31,0.06,6,Rain-Thunderstorm,75
2013-10-12,53,43,33,50,37,28,100,73,38,30.16,29.78,29.30,10,10,5,30,20,40,0.00,3,Rain,306
2013-10-13,53,40,28,37,30,27,100,72,35,30.35,30.29,30.16,10,10,10,8,6,,0.00,0,,265
2013-10-14,42,38,35,41,39,32,100,93,81,30.33,30.26,30.20,10,6,2,17,7,25,0.42,6,Rain,59
2013-10-15,46,39,32,39,35,30,100,88,62,30.20,30.12,30.00,10,10,5,18,12,25,0.01,3,Rain,357
2013-10-16,57,44,32,43,36,30,100,79,51,29.99,29.86,29.80,10,10,10,15,8,,0.00,2,,279
2013-10-17,48,40,32,37,32,27,100,72,43,30.00,29.95,29.88,10,10,8,20,11,24,0.00,6,Rain,325
2013-10-18,44,36,28,36,32,28,100,85,61,29.94,29.86,29.73,10,10,4,20,9,24,0.00,7,Rain,276
2013-10-19,41,34,26,32,28,23,100,80,49,29.79,29.73,29.64,10,9,3,14,8,,0.02,4,Rain-Snow,291
2013-10-20,35,32,28,34,27,16,100,82,59,29.98,29.82,29.60,10,8,2,22,13,30,0.53,7,Rain-Snow,8
2013-10-21,33,30,26,27,21,18,86,70,56,29.99,29.97,29.94,10,10,10,21,10,25,0.00,7,,336
2013-10-22,37,30,24,27,24,19,100,80,56,30.09,30.04,29.99,10,10,10,12,5,,0.00,7,,347
2013-10-23,39,32,26,30,27,25,100,78,61,30.17,30.10,30.03,10,10,8,20,8,26,0.00,7,Rain-Snow,318
2013-10-24,41,32,24,28,27,23,93,79,56,30.28,30.23,30.17,10,10,10,15,9,21,0.00,5,,288
2013-10-25,57,42,28,37,29,23,93,68,36,30.17,29.91,29.76,10,10,10,29,15,45,0.00,1,,274
2013-10-26,41,36,32,27,24,23,75,62,52,30.19,30.05,29.76,10,10,10,17,13,25,0.00,4,,288
2013-10-27,41,31,21,30,24,16,87,71,56,30.43,30.04,29.71,10,10,10,26,14,34,0.00,5,,7
2013-10-28,30,24,19,16,14,10,86,64,44,30.59,30.51,30.44,10,10,10,15,10,22,0.00,4,,64
2013-10-29,37,28,19,21,19,16,86,70,45,30.44,30.20,30.05,10,10,10,10,6,,0.00,3,,178
2013-10-30,41,32,24,32,27,21,100,79,65,30.04,29.84,29.61,10,10,10,14,7,,0.00,6,,209
2013-10-31,44,34,24,32,28,23,100,88,61,29.60,29.50,29.45,10,9,5,14,6,,0.00,1,,281